Wind_Speed
12 14 15 16 17 17 18 19 20 21 21 21 22 22 23 23 23 24 24 24 24 23 22 22 20 19 18 18 18 18 18 20 23 24 25 25 24 22 22 23 24 23 22 21 22 23 24 26 29 32 34 35 36 38 38 37 37 38 38 39 39 39 40 40 41 41 41 41 41 42 43 43 44 45
11 12 13 14 14 15 16 17 18 19 20 20 21 21 21 21 21 22 22 22 22 22 22 21 21 21 21 21 21 21 21 22 22 23 24 25 24 22 21 21 22 22 22 23 24 25 25 27 29 31 33 34 36 38 38 38 38 39 39 39 39 39 40 40 40 41 41 41 42 43 44 44 44 45
10 11 11 12 12 13 14 15 16 17 18 19 20 20 20 20 20 20 21 21 21 21 21 21 21 21 21 22 22 22 22 22 22 23 24 23 22 21 21 21 22 22 23 25 25 26 26 27 29 30 32 34 36 37 38 37 38 39 39 39 38 39 39 39 40 40 41 41 42 43 44 44 45 45
12 11 11 11 12 12 13 13 14 15 16 17 18 19 20 20 20 20 20 20 20 20 20 20 20 20 20 20 20 20 21 21 22 22 22 21 21 22 22 22 23 24 25 25 26 26 27 28 28 29 31 34 35 36 37 37 38 39 39 39 39 38 39 39 40 40 41 41 42 42 43 44 45 45
13 13 13 12 12 12 12 13 14 14 15 16 16 18 19 19 20 20 20 20 20 20 20 20 20 19 19 19 19 20 20 20 21 21 20 21 22 22 23 23 24 24 25 26 27 27 28 28 28 28 30 34 35 35 37 38 38 38 39 39 39 38 38 39 40 41 41 41 41 42 43 44 45 46
14 14 14 14 14 13 13 13 14 15 15 16 16 17 18 19 19 20 20 20 20 21 21 21 21 21 20 19 19 19 19 20 20 21 21 22 23 23 24 24 25 25 26 26 27 28 28 28 27 27 30 35 36 36 36 37 38 38 38 38 39 38 37 37 39 40 40 40 41 42 43 44 46 47
16 16 16 16 16 15 15 15 15 15 16 17 17 17 18 18 19 20 21 21 21 21 22 22 23 23 23 22 20 20 20 20 21 22 23 23 23 23 24 24 25 26 26 27 28 28 27 27 26 27 31 36 38 36 35 36 37 37 38 37 38 37 36 36 37 38 39 40 41 42 44 45 47 49
18 17 17 17 17 17 17 16 16 16 17 18 18 19 19 19 19 20 21 21 21 21 22 23 24 25 25 25 24 23 23 22 21 21 22 23 23 23 24 24 24 25 26 27 27 26 25 25 26 28 33 37 39 35 32 34 37 38 38 37 37 36 35 34 36 37 39 40 41 43 46 48 50 52
20 19 18 18 18 19 19 19 18 18 18 19 19 20 20 20 20 21 21 22 22 22 22 23 24 25 26 27 27 26 26 25 24 22 22 23 24 24 25 25 25 24 24 25 25 24 23 24 27 30 33 36 36 31 29 33 36 37 38 38 37 35 33 33 34 36 37 38 39 42 45 49 52 53
22 21 20 20 20 20 20 21 21 21 20 20 20 21 21 22 22 22 22 23 23 23 23 23 24 25 26 27 27 28 28 27 27 25 24 24 24 25 25 25 25 24 24 23 23 22 23 25 28 30 32 33 32 29 29 32 36 37 38 38 37 34 31 31 32 34 36 36 37 39 42 46 50 53
23 22 22 22 21 21 22 22 23 23 23 23 22 22 22 22 23 23 23 24 24 24 24 25 25 25 26 27 28 28 29 28 28 28 27 27 26 26 26 25 24 24 24 24 24 23 25 26 28 30 32 32 31 29 30 33 35 37 38 38 37 34 30 29 31 32 34 34 35 37 40 44 48 52
24 24 23 23 23 23 23 23 24 24 25 25 25 25 24 24 24 24 24 25 25 25 25 25 26 26 26 27 28 29 30 30 30 30 30 29 28 29 29 28 26 25 24 24 25 26 27 27 27 30 32 31 30 30 31 33 36 37 38 37 36 33 29 28 30 31 32 32 33 34 38 42 47 51
24 25 25 24 24 24 24 24 24 25 26 27 27 27 27 26 25 25 25 26 26 26 26 26 27 27 27 27 28 29 31 32 32 32 32 31 30 30 31 31 30 28 26 26 27 27 26 26 27 31 32 30 29 29 30 32 36 38 38 37 35 32 29 28 29 31 31 30 31 33 37 41 46 49
25 26 26 26 26 26 26 25 25 26 27 28 29 29 29 29 28 28 27 27 27 27 27 28 28 28 28 28 29 30 31 33 34 35 34 34 33 33 33 33 33 31 29 28 28 27 26 26 28 31 31 29 28 28 28 31 36 38 38 38 36 32 28 27 29 31 31 29 30 33 36 40 44 48
26 27 27 28 28 28 27 27 27 28 28 29 30 31 31 31 31 31 30 29 29 28 28 29 29 30 30 30 31 31 32 33 35 37 36 36 36 35 35 35 34 34 32 30 29 28 26 26 28 30 29 28 28 27 28 31 35 37 38 39 37 32 28 28 29 30 30 29 30 33 36 39 43 46
27 27 28 29 29 30 30 30 29 29 30 30 31 32 32 33 33 33 33 32 32 31 30 30 30 31 32 32 33 32 33 34 36 38 38 37 37 37 37 36 35 34 32 31 29 28 28 28 28 29 29 28 27 27 29 32 35 37 39 40 37 33 30 29 29 30 30 30 32 34 36 38 41 44
28 28 29 29 30 31 31 31 31 31 31 31 31 32 33 34 34 35 35 35 34 34 32 32 32 32 32 33 34 34 34 35 37 38 39 39 39 38 37 36 34 33 31 29 28 28 28 28 28 28 28 27 27 28 30 33 35 37 39 38 36 33 31 29 30 30 31 32 34 36 37 38 39 43
29 29 29 29 29 29 29 29 30 30 30 30 30 31 32 33 34 34 35 36 36 35 35 34 33 33 33 34 34 35 35 36 37 38 39 39 39 38 37 36 34 32 30 28 28 28 28 27 27 28 28 28 28 29 32 35 37 38 38 37 35 32 30 29 30 31 33 35 36 37 37 37 38 42
31 31 30 29 29 29 28 28 28 28 29 29 29 28 30 31 32 33 33 35 35 36 35 35 35 35 35 34 34 35 36 37 38 39 38 38 38 37 36 35 33 32 31 29 29 30 30 28 28 29 30 30 29 31 34 37 38 38 38 37 34 31 28 28 30 32 35 36 38 38 37 37 38 42
33 32 32 31 31 31 31 30 29 28 28 28 28 27 28 30 30 31 31 33 34 35 35 35 35 35 35 35 34 35 36 37 38 38 38 37 37 36 35 34 33 32 31 31 31 32 31 31 31 32 32 32 31 33 35 38 39 39 38 36 35 31 27 27 30 33 35 37 38 38 37 37 39 42
33 33 33 33 32 32 32 31 31 30 29 29 28 27 28 29 30 30 31 33 34 34 35 35 35 35 35 35 34 35 37 38 38 37 36 36 35 35 35 34 33 33 32 31 32 33 32 32 33 34 34 34 33 34 36 38 40 39 37 36 35 31 27 27 29 33 36 37 39 39 38 38 41 43
32 33 33 33 33 33 33 33 32 31 31 30 29 29 29 30 30 30 32 35 35 34 35 35 34 34 34 35 35 36 37 37 36 35 35 35 35 35 36 36 36 37 35 33 33 34 35 34 34 34 35 35 35 35 37 39 41 40 37 35 34 32 28 26 29 33 35 37 38 38 38 40 42 44
31 32 33 33 33 33 34 34 34 34 33 33 32 31 32 32 31 31 34 36 35 34 33 33 33 33 34 35 36 36 36 36 35 34 34 35 36 37 38 38 38 39 38 36 35 37 39 39 38 36 35 36 36 36 38 41 43 42 38 35 34 31 27 26 29 34 37 37 36 36 38 41 44 46
30 31 32 32 33 33 35 36 36 35 35 35 35 35 35 34 33 33 35 36 36 34 34 34 34 35 35 35 35 35 35 35 35 35 35 36 37 37 38 38 38 38 38 38 38 40 41 41 41 39 37 36 36 37 39 43 46 44 39 36 34 31 28 28 32 36 38 38 37 36 37 40 43 46
30 29 30 30 31 33 34 35 36 36 36 37 37 38 37 36 36 36 37 37 37 37 37 37 37 36 35 35 36 36 36 36 37 37 37 37 37 36 36 37 38 38 39 41 43 43 42 41 41 39 37 35 35 36 40 44 45 43 39 36 34 32 30 33 37 39 40 40 39 38 39 40 43 46
29 28 29 29 30 31 32 34 35 35 36 37 38 39 39 39 38 38 38 39 38 38 38 38 38 37 36 36 36 37 38 39 39 38 38 39 38 37 37 38 39 40 42 44 43 40 36 36 36 35 33 33 35 38 40 41 40 39 37 36 35 34 35 38 41 43 43 43 42 41 41 42 44 47
28 27 27 27 27 28 29 31 33 34 35 36 37 38 39 40 40 40 40 40 40 40 40 39 39 38 38 37 37 38 39 40 40 40 40 41 41 40 41 41 42 43 45 43 37 32 32 32 32 31 32 35 38 39 38 37 36 35 35 35 35 36 39 42 44 45 45 45 44 44 44 45 46 48
26 25 25 25 26 26 27 29 30 32 33 34 35 36 38 39 40 40 40 41 41 42 41 41 41 41 40 40 40 39 40 41 41 42 43 43 43 43 43 44 44 45 43 38 33 32 34 35 34 34 37 40 40 39 38 35 34 34 33 34 35 38 41 44 45 46 46 46 46 47 48 49 50 51
25 24 24 24 24 25 25 26 28 30 31 32 34 35 36 37 38 39 40 40 41 42 43 43 42 42 42 42 42 41 41 41 42 43 44 44 45 45 46 45 44 41 37 34 33 34 36 38 39 40 42 42 41 39 37 35 34 33 34 34 35 38 41 45 46 46 46 46 47 49 50 51 53 54
26 25 24 24 24 24 24 24 26 28 30 31 33 34 34 36 37 38 39 40 41 42 43 43 43 43 44 44 44 43 42 42 42 43 44 45 46 46 45 42 39 35 34 34 35 37 38 41 43 44 44 43 40 37 35 34 34 34 35 35 37 39 42 45 45 46 47 49 49 50 51 52 54 55
27 26 25 25 24 23 23 23 24 26 28 29 31 32 34 35 36 37 38 40 41 42 42 43 44 44 44 44 44 44 43 43 42 42 43 44 44 44 42 38 35 35 36 38 39 39 40 41 42 44 44 42 38 36 36 35 35 36 36 36 38 40 42 44 46 48 50 51 51 52 53 54 55 57
28 26 25 25 25 24 24 24 25 25 26 28 29 30 31 33 35 37 38 39 40 40 41 43 44 44 43 44 44 44 44 44 43 43 43 41 40 39 39 38 39 39 40 42 43 43 42 41 42 44 45 42 39 38 38 38 38 38 38 39 40 41 43 45 48 51 53 53 54 54 55 56 57 59
28 27 26 26 25 25 25 25 26 26 26 27 28 29 30 32 35 37 38 40 40 40 42 44 44 43 43 43 43 44 45 44 44 42 40 38 37 38 39 41 42 42 42 44 45 45 44 44 46 47 46 43 40 40 41 41 41 41 42 43 44 44 46 48 50 52 54 55 56 57 57 57 59 60
29 28 28 28 28 27 27 26 26 26 26 26 27 28 30 33 35 37 39 41 39 39 41 42 42 42 44 44 44 45 45 43 42 41 40 40 40 41 42 44 44 44 45 46 48 48 48 49 50 49 45 41 39 40 41 42 43 43 44 45 45 46 48 49 51 52 54 56 57 58 59 60 60 61
30 30 31 31 30 28 28 27 26 24 24 25 27 27 29 33 37 39 41 41 40 40 41 43 43 44 44 44 44 45 45 44 44 43 43 44 44 44 43 44 45 46 48 50 51 51 51 50 49 46 41 39 39 40 41 42 43 44 45 46 47 48 50 51 53 54 55 57 58 60 61 61 61 61
31 33 33 31 29 28 28 27 26 26 28 30 30 28 28 32 38 44 45 45 45 44 43 43 44 45 44 43 41 40 39 41 42 43 43 44 44 44 44 44 45 47 50 52 53 53 51 50 47 42 39 39 39 40 41 43 43 44 46 47 49 51 52 53 54 56 57 58 59 59 59 59 59 59
33 33 32 30 29 30 30 29 29 33 36 35 32 28 26 28 38 49 53 52 50 49 45 43 44 47 48 47 45 42 39 40 40 41 43 44 44 44 45 45 46 48 50 51 52 51 49 47 44 41 40 40 41 41 42 43 44 46 48 50 51 53 55 56 57 58 58 57 57 56 56 57 58 58
36 35 33 32 30 29 30 31 33 35 35 30 26 28 30 30 37 49 57 58 56 54 50 48 49 51 52 51 50 50 48 47 47 49 51 50 47 45 45 45 46 48 47 47 47 46 45 43 41 41 42 42 43 43 44 45 46 48 50 51 53 55 57 58 59 59 58 57 55 55 56 57 57 56
39 37 33 30 28 28 31 33 31 28 24 22 25 34 39 39 41 49 56 58 58 55 51 50 50 51 52 52 52 52 53 54 55 57 57 53 48 46 45 46 46 46 45 44 44 43 43 42 42 43 44 45 46 46 47 47 48 49 51 52 54 56 58 60 60 60 59 59 58 57 57 57 56 55
41 40 34 28 26 28 31 29 23 20 22 25 29 38 47 50 51 53 53 54 56 54 50 48 48 48 48 50 51 52 53 55 56 56 54 52 49 48 47 46 46 46 45 44 44 44 44 46 47 48 49 49 48 49 48 48 49 51 52 54 56 58 61 62 62 62 61 61 61 60 59 58 58 58
40 42 38 32 27 25 24 23 24 24 29 34 39 48 56 58 56 54 51 51 53 51 49 49 48 48 48 49 49 50 51 52 53 53 51 50 48 47 46 46 46 47 47 45 45 46 48 50 52 53 52 51 51 50 49 50 52 53 55 57 59 61 62 64 65 66 65 65 64 63 63 63 63 64
37 40 40 37 30 22 22 28 33 35 42 48 51 54 57 55 51 50 49 49 49 48 48 49 50 50 49 49 50 51 52 51 52 50 48 47 46 46 47 49 49 50 50 49 50 52 54 55 56 55 54 53 52 51 51 53 56 58 59 61 62 62 63 65 67 69 69 69 69 68 68 68 69 69
42 41 42 40 35 29 29 35 42 47 53 54 52 51 51 49 46 44 45 46 47 46 46 48 50 51 51 51 51 50 49 48 48 48 48 49 51 52 53 53 53 53 54 55 56 58 59 59 58 57 56 55 53 53 55 58 60 62 64 64 64 64 65 66 68 70 72 73 73 73 73 73 73 74
48 47 45 42 40 40 39 40 45 49 51 50 48 48 47 45 43 42 42 44 46 46 46 47 48 50 51 50 49 48 48 49 50 51 53 55 56 57 57 57 57 57 58 59 60 62 62 62 61 59 57 55 55 57 60 63 65 67 67 66 66 67 68 69 70 72 74 75 76 76 77 77 77 77
48 52 50 48 47 47 44 43 43 45 46 46 47 46 44 43 42 42 41 41 43 45 46 48 48 49 51 52 52 53 55 57 58 59 59 60 60 59 60 60 60 61 61 62 63 64 64 64 63 61 59 59 60 62 65 68 70 70 68 68 69 71 72 72 73 75 76 77 78 79 81 82 82 82
Wind_Direction
16 18 19 22 24 26 27 28 28 28 27 26 26 28 31 33 32 32 32 32 33 33 33 33 32 31 28 24 19 14 10 9 8 8 8 10 12 12 12 17 21 19 15 10 6 4 4 2 1 1 360 0 2 2 3 4 4 5 6 6 6 6 6 5 4 4 5 6 7 9 10 11 12 14
6 9 11 14 17 18 20 22 22 22 22 22 22 22 24 26 28 28 28 27 26 26 26 26 26 26 25 24 22 19 16 13 11 10 10 7 4 3 6 11 15 13 9 4 360 358 358 356 356 356 357 359 -0 -0 1 2 3 4 5 5 6 7 6 5 4 4 4 5 7 8 9 10 11 12
353 356 359 2 5 8 10 12 13 14 14 14 15 15 16 18 19 21 23 23 22 20 19 20 20 19 18 17 17 16 15 12 11 13 12 6 1 1 2 3 2 1 360 358 354 352 353 352 351 353 356 357 357 358 359 1 2 3 3 3 5 7 7 6 5 5 5 5 7 8 8 9 9 10
344 345 347 349 351 354 357 359 1 3 4 4 5 5 7 9 10 11 14 16 16 14 12 13 15 15 14 12 10 8 8 6 5 9 8 2 0 1 1 358 356 355 355 354 352 350 348 346 347 351 356 355 354 356 357 358 1 2 1 1 2 4 6 6 6 6 5 6 7 7 8 8 8 8
337 338 339 340 341 342 343 344 346 347 350 351 353 355 357 358 359 1 3 6 7 5 3 3 5 7 10 10 6 2 2 360 357 358 358 355 357 357 355 353 353 353 353 352 350 347 344 343 345 350 353 352 351 353 354 356 359 360 359 358 358 359 2 4 5 5 5 6 7 8 7 7 6 6
331 333 334 335 336 335 334 333 333 333 335 337 339 342 345 348 349 349 351 355 357 357 355 354 353 355 358 3 3 358 357 357 354 351 350 352 353 351 349 348 348 348 349 348 346 344 343 344 346 347 347 348 349 350 352 354 356 357 357 356 355 355 357 360 2 4 5 7 8 7 7 6 5 5
326 328 329 330 331 332 331 329 327 325 324 325 328 330 333 336 339 340 341 344 347 348 347 346 345 345 346 351 354 351 350 353 353 350 348 349 349 346 344 343 343 343 343 343 342 342 343 345 345 343 343 344 345 346 349 352 354 355 355 354 352 352 353 357 360 1 3 6 6 6 5 4 4 4
322 324 325 326 327 328 329 328 326 323 320 319 319 320 323 325 328 331 332 334 337 339 339 339 338 338 338 341 343 344 343 345 349 349 347 346 344 342 341 340 339 339 340 340 340 340 341 342 342 341 341 343 343 344 347 351 353 354 353 352 351 350 352 355 358 360 2 3 3 3 2 2 2 2
319 321 322 324 324 324 325 326 325 324 321 319 317 316 316 318 319 322 324 325 328 330 331 332 333 333 333 334 336 337 336 337 340 342 342 341 340 340 339 338 337 336 337 338 337 336 336 337 338 340 341 342 343 345 349 351 352 353 351 350 350 349 351 355 357 359 -0 0 1 1 0 -0 360 0
317 319 321 322 322 322 323 323 323 323 322 320 318 316 315 315 316 316 317 318 320 322 324 326 327 328 329 329 329 330 330 331 332 334 336 336 336 335 335 335 334 334 334 335 334 331 330 332 335 338 340 341 341 343 349 351 352 351 349 348 348 350 351 354 357 358 358 358 358 359 359 359 359 359
315 317 319 320 321 321 322 322 322 321 321 320 318 317 316 315 315 315 315 315 316 317 319 321 323 324 324 324 323 323 324 325 326 328 329 331 330 329 329 330 332 333 332 331 330 329 327 329 332 334 337 339 337 337 344 349 349 348 347 346 346 349 352 354 358 358 355 355 356 357 358 359 359 359
313 316 318 318 319 319 320 320 320 319 318 318 317 317 316 316 316 315 315 315 315 316 317 318 319 320 320 320 319 318 319 320 321 322 323 326 326 325 324 325 328 331 330 326 326 326 326 327 329 332 333 334 332 331 337 344 345 344 344 344 344 346 351 355 357 355 353 353 355 356 358 360 360 -0
312 313 315 315 315 316 316 317 317 317 316 316 315 315 315 316 316 315 315 315 315 315 317 317 317 318 317 316 315 314 315 316 316 317 318 320 321 321 322 322 324 327 327 324 323 325 326 327 327 327 327 328 329 328 330 337 341 342 342 342 343 344 348 352 352 351 350 351 352 355 359 0 0 360
311 311 311 312 312 312 313 313 314 314 313 313 313 313 313 314 315 315 314 314 314 315 316 316 316 315 315 314 312 311 312 313 313 313 315 317 318 319 320 320 320 322 322 322 322 324 327 326 323 322 322 324 326 324 325 332 337 338 339 342 343 344 344 345 346 346 347 348 350 354 357 359 359 359
310 310 309 309 309 310 310 311 311 311 310 310 310 310 311 311 312 312 313 313 313 313 314 313 313 312 312 311 310 310 311 311 310 311 314 316 317 318 319 319 319 319 320 321 321 323 327 325 320 318 318 321 323 323 323 328 333 336 339 342 343 344 342 342 343 345 345 346 348 351 354 355 355 356
307 307 307 308 308 308 308 309 309 309 309 309 308 308 308 309 309 309 310 311 311 311 311 311 310 309 309 309 308 309 310 310 310 311 313 315 316 317 318 318 318 317 318 320 320 321 323 322 317 315 315 318 323 323 322 326 331 336 339 340 342 344 345 345 345 345 345 346 347 348 349 351 351 352
302 303 304 305 306 306 306 306 307 307 307 307 308 307 306 306 306 306 307 307 308 309 309 308 307 307 307 307 307 308 309 309 309 310 312 313 314 316 316 316 316 315 316 317 316 315 315 316 315 313 314 317 321 323 324 326 331 335 337 338 340 344 347 347 347 346 345 345 346 347 348 348 348 349
298 300 302 303 304 304 304 305 305 306 306 306 306 306 305 303 302 302 303 303 304 305 305 305 305 304 304 305 305 306 307 307 308 308 310 312 314 315 315 314 314 313 313 313 312 310 311 315 317 315 315 318 321 323 325 326 329 333 334 335 338 342 345 347 347 345 344 344 345 346 347 346 346 347
297 297 299 300 301 302 302 303 302 303 303 304 304 304 302 300 299 298 298 299 299 300 300 300 301 301 301 302 303 304 305 305 306 307 309 311 312 313 312 312 311 311 311 311 310 310 313 317 320 318 317 319 322 323 324 325 327 331 332 333 336 339 341 344 345 344 342 341 342 344 344 344 344 345
298 297 297 297 298 298 298 299 299 300 300 300 301 301 300 299 296 295 294 294 293 294 294 295 296 298 299 300 301 303 304 304 305 307 309 311 311 310 309 309 309 308 309 309 309 310 313 317 320 320 319 320 321 321 321 322 326 329 329 330 332 333 335 338 341 341 340 338 339 340 340 340 341 343
302 300 298 297 296 297 297 297 298 298 299 299 300 299 298 296 296 295 293 291 289 290 291 292 294 296 297 300 304 307 307 306 306 307 308 309 308 307 306 307 308 307 307 308 307 308 311 315 317 317 317 318 319 319 319 320 324 327 326 326 328 328 328 332 337 339 339 338 338 338 338 338 339 341
307 304 302 300 299 298 297 297 297 296 297 298 299 298 295 294 295 296 294 291 290 290 291 292 293 295 298 303 308 310 309 307 306 305 306 306 306 305 306 307 308 308 307 308 307 307 309 312 313 313 315 316 316 317 318 319 322 325 323 323 324 323 323 329 336 338 340 339 338 336 336 336 336 338
311 308 305 304 302 300 298 297 297 297 297 297 297 295 293 293 294 295 293 292 293 294 294 295 296 298 302 306 309 309 307 304 302 302 303 305 305 306 308 309 308 308 308 308 307 306 308 310 311 311 313 313 312 313 316 317 320 323 322 320 320 319 320 326 332 335 337 338 338 336 334 334 334 335
316 312 310 307 305 302 299 299 299 299 298 297 295 293 293 293 293 293 293 294 296 297 298 299 300 302 305 307 306 304 301 298 297 299 301 303 305 307 308 308 308 308 308 307 306 305 307 309 310 311 312 311 310 311 312 314 318 320 319 318 316 315 316 322 327 331 334 335 335 334 332 331 332 332
320 317 312 309 306 303 302 302 302 301 299 297 295 295 294 293 292 291 292 294 295 297 299 300 301 303 304 304 302 299 296 294 294 296 299 300 302 304 305 305 305 305 305 305 304 303 304 305 307 310 313 313 311 310 311 313 315 317 316 315 313 312 316 322 326 329 331 331 332 331 330 329 330 330
323 319 315 312 309 307 305 304 303 301 299 298 297 297 296 294 293 292 292 294 295 296 297 298 299 300 301 300 298 295 293 293 294 296 297 298 299 300 301 301 302 302 303 303 303 302 302 303 306 309 313 314 311 310 311 313 315 315 313 311 310 311 316 322 326 328 329 329 329 329 328 328 329 330
323 321 317 315 312 308 306 304 302 301 300 299 299 298 297 296 296 295 294 294 294 294 295 295 296 297 297 296 294 293 293 294 295 297 297 298 300 301 301 301 302 303 304 303 302 303 304 306 308 311 314 315 313 312 313 315 315 314 312 309 307 308 314 320 323 325 327 327 327 327 326 327 327 328
322 320 317 313 311 308 305 302 301 301 301 300 300 300 299 299 299 298 297 296 295 294 293 293 294 294 293 292 291 291 293 295 297 298 300 301 303 302 302 302 303 303 302 299 294 295 299 303 305 309 314 316 315 314 314 314 314 315 313 310 308 308 312 316 319 322 323 324 324 325 325 326 326 327
318 316 313 310 308 307 305 304 303 302 301 301 300 301 301 300 300 299 299 297 295 293 292 292 292 292 291 291 292 293 295 297 298 300 301 302 302 301 302 303 304 302 298 293 289 289 294 297 300 304 309 313 314 313 312 312 313 314 313 312 311 310 311 314 317 319 320 321 322 323 324 324 324 325
314 312 308 306 305 304 304 304 303 302 302 302 302 302 301 301 302 301 300 298 295 293 293 292 292 291 291 292 295 296 297 298 299 299 300 300 300 300 302 303 303 300 297 293 291 292 294 297 299 302 306 310 311 309 308 308 310 311 312 313 312 312 312 314 316 317 318 320 322 322 321 321 321 321
309 307 305 303 303 303 303 303 302 302 302 302 303 303 304 304 304 301 299 297 294 294 294 294 294 294 294 295 296 297 296 297 298 298 298 299 301 302 302 301 300 300 299 297 296 297 299 300 301 302 304 307 307 304 303 304 305 307 310 312 313 313 313 314 315 317 318 320 320 319 318 318 318 318
305 305 305 305 305 305 305 304 302 302 303 304 304 305 306 305 302 299 297 295 295 296 297 296 295 295 295 295 295 295 295 295 296 296 297 299 302 302 300 298 299 300 298 295 295 298 300 300 300 300 302 303 301 300 300 303 305 308 311 312 313 313 313 313 315 317 317 317 316 315 315 315 315 316
301 303 306 308 310 311 308 305 305 306 307 307 306 306 307 305 301 297 296 296 296 297 295 293 293 294 295 295 295 295 294 294 295 296 296 296 297 297 295 296 298 299 296 293 293 295 296 299 300 301 302 302 300 299 301 303 306 309 310 311 312 313 313 313 314 315 314 313 313 313 313 314 315 315
296 301 306 310 312 312 310 309 310 310 309 309 309 311 313 311 305 301 299 297 296 295 294 293 295 296 297 297 296 294 293 292 294 295 292 290 292 292 291 292 294 294 293 293 292 293 296 299 302 303 304 304 303 303 303 305 307 308 309 310 311 311 311 312 311 311 311 311 312 313 314 314 315 315
292 298 305 309 310 311 313 315 315 313 311 312 314 318 324 324 314 304 297 292 290 290 292 294 296 297 297 297 297 296 294 292 292 294 294 292 293 292 290 290 289 288 287 289 290 293 297 300 301 302 305 306 305 305 305 306 307 308 309 310 310 309 309 309 309 309 310 311 312 313 313 314 314 314
291 297 303 307 309 312 316 320 319 316 315 317 319 325 335 333 315 298 290 287 287 286 287 289 290 289 289 290 293 298 300 299 297 297 297 295 294 292 291 289 287 286 286 288 291 294 298 300 301 302 304 305 304 304 305 306 307 308 308 308 308 308 308 308 309 310 311 311 312 312 313 314 315 316
290 296 300 303 307 311 316 318 319 319 320 324 326 323 325 321 305 293 291 291 288 285 284 285 284 283 283 284 285 287 293 299 301 301 301 300 297 294 293 290 288 287 289 291 294 297 299 300 300 300 301 301 302 303 304 305 305 306 305 306 307 308 308 309 310 311 312 313 313 314 315 316 316 316
289 294 298 301 304 310 315 318 324 329 330 328 318 300 292 293 292 290 290 290 289 288 288 286 284 284 285 286 286 284 285 291 295 298 300 301 299 297 296 294 292 292 293 295 296 297 298 298 298 298 298 299 300 302 304 304 303 303 304 306 308 309 311 312 313 314 314 315 315 315 316 316 315 314
288 292 296 299 302 314 325 329 333 332 320 305 296 291 288 288 286 283 282 283 285 288 290 288 286 286 286 288 288 287 287 290 293 295 296 297 297 297 297 295 293 293 295 295 296 296 297 297 297 297 297 298 300 302 303 303 302 303 305 307 309 311 313 314 315 316 316 316 315 314 314 313 313 313
294 291 289 294 307 327 337 331 318 303 292 291 296 293 288 287 287 283 279 279 281 284 288 289 287 287 288 288 288 287 288 290 292 293 294 293 294 296 296 294 293 293 294 294 295 295 295 295 295 295 296 298 300 300 300 301 303 304 306 307 309 311 312 314 315 316 316 316 314 313 312 312 312 314
294 284 280 289 308 328 327 300 278 277 284 290 290 285 282 283 284 282 278 277 278 281 285 286 286 287 289 289 288 287 288 289 290 291 292 292 293 295 296 295 295 296 295 294 293 292 293 293 294 295 296 296 297 297 298 300 302 304 304 306 307 308 311 312 314 314 315 315 314 314 313 313 314 315
278 273 274 282 291 301 297 282 276 278 282 283 282 281 280 281 281 279 277 278 279 280 282 285 287 289 290 290 290 289 289 289 290 290 291 292 293 295 297 297 298 297 295 293 291 291 293 294 295 295 295 294 294 295 296 299 301 302 303 303 304 305 307 309 311 313 313 314 314 314 315 315 316 316
272 272 275 276 275 274 277 278 277 278 281 283 283 282 282 282 280 277 277 279 281 283 285 287 289 290 291 291 291 291 291 291 290 290 290 291 294 296 297 298 298 296 294 292 291 291 292 293 294 294 293 292 292 292 295 297 299 300 301 301 302 303 305 307 309 311 312 313 313 314 315 315 315 315
277 278 278 275 273 274 278 278 277 278 281 283 283 282 281 281 279 276 275 277 281 285 287 287 288 289 290 289 289 289 289 290 290 290 291 292 294 296 297 297 296 294 293 291 291 291 291 292 292 292 291 290 291 292 295 297 298 299 300 300 300 302 304 305 308 310 311 311 311 312 313 314 314 314
275 277 277 277 277 281 284 283 281 281 281 281 281 282 282 281 280 279 279 280 282 284 285 286 285 284 283 283 284 285 286 287 289 290 290 292 294 295 296 296 296 295 294 292 291 290 290 290 291 291 290 291 292 294 295 297 297 298 298 299 301 302 303 305 307 309 309 310 310 311 313 313 313 313
Height
11028 11027 11027 11026 11025 11024 11023 11022 11021 11019 11018 11016 11015 11014 11013 11012 11011 11010 11009 11008 11006 11005 11005 11004 11003 11001 11000 10999 10997 10996 10995 10993 10992 10991 10989 10988 10987 10986 10985 10984 10982 10981 10980 10979 10977 10975 10973 10971 10969 10967 10966 10964 10961 10958 10955 10952 10949 10946 10943 10939 10936 10933 10930 10927 10924 10921 10918 10915 10911 10908 10905 10901 10897 10893
11029 11029 11028 11027 11026 11026 11024 11023 11022 11020 11019 11017 11016 11015 11014 11013 11012 11011 11010 11009 11008 11007 11006 11005 11003 11002 11001 10999 10998 10996 10995 10994 10993 10991 10989 10988 10987 10986 10986 10984 10983 10981 10980 10978 10977 10975 10973 10971 10969 10967 10966 10963 10961 10958 10955 10952 10949 10946 10943 10940 10937 10934 10931 10928 10925 10921 10918 10915 10912 10908 10905 10901 10898 10894
11030 11029 11029 11028 11027 11026 11025 11024 11022 11021 11020 11018 11017 11016 11015 11014 11013 11012 11011 11010 11009 11007 11006 11005 11004 11003 11001 11000 10998 10997 10995 10994 10993 10991 10990 10989 10988 10987 10986 10984 10983 10981 10979 10977 10976 10974 10972 10970 10968 10967 10965 10963 10960 10958 10955 10952 10949 10946 10943 10940 10937 10934 10931 10928 10925 10922 10919 10916 10912 10908 10905 10901 10898 10894
11030 11029 11029 11028 11028 11027 11025 11024 11023 11022 11020 11019 11018 11016 11015 11014 11013 11013 11012 11011 11009 11008 11006 11005 11005 11004 11002 11000 10999 10997 10996 10994 10993 10992 10991 10990 10989 10987 10985 10984 10982 10980 10978 10976 10974 10972 10970 10969 10967 10965 10963 10961 10959 10957 10954 10952 10948 10945 10943 10940 10937 10934 10931 10928 10925 10922 10919 10916 10913 10909 10905 10902 10898 10895
11030 11030 11029 11029 11028 11027 11026 11025 11023 11022 11021 11019 11018 11017 11016 11015 11014 11013 11012 11011 11010 11008 11006 11005 11004 11003 11002 11001 10999 10997 10996 10995 10993 10992 10991 10990 10988 10986 10984 10982 10981 10978 10976 10974 10973 10971 10969 10967 10965 10964 10962 10960 10958 10956 10953 10951 10947 10944 10942 10939 10937 10934 10931 10928 10925 10922 10919 10916 10913 10909 10906 10902 10898 10895
11030 11029 11029 11028 11028 11027 11026 11025 11023 11022 11021 11019 11018 11017 11016 11015 11014 11012 11011 11011 11010 11008 11006 11004 11003 11002 11001 11001 10999 10997 10996 10995 10993 10991 10990 10988 10986 10984 10983 10981 10979 10977 10975 10973 10972 10970 10968 10966 10964 10962 10960 10958 10956 10954 10951 10949 10946 10943 10941 10938 10936 10933 10930 10927 10924 10922 10919 10916 10913 10910 10906 10903 10899 10895
11030 11029 11029 11028 11027 11027 11026 11025 11024 11022 11021 11019 11018 11017 11016 11015 11014 11012 11011 11010 11009 11008 11006 11004 11002 11001 11000 10999 10998 10997 10995 10994 10993 10990 10988 10986 10985 10983 10981 10980 10978 10976 10974 10973 10970 10968 10966 10965 10963 10961 10959 10957 10954 10952 10949 10947 10945 10942 10940 10937 10935 10933 10930 10927 10924 10921 10918 10915 10912 10909 10906 10903 10899 10895
11029 11029 11028 11028 11027 11026 11025 11024 11023 11022 11021 11019 11018 11017 11016 11015 11014 11012 11011 11009 11008 11007 11006 11004 11002 11000 10998 10996 10996 10994 10993 10992 10991 10989 10987 10985 10983 10981 10980 10978 10977 10975 10973 10971 10969 10967 10965 10964 10962 10960 10958 10955 10952 10950 10948 10946 10943 10941 10938 10936 10934 10932 10929 10926 10923 10921 10918 10914 10911 10908 10905 10901 10898 10894
11027 11028 11027 11027 11026 11025 11024 11023 11022 11021 11020 11019 11017 11016 11015 11014 11013 11012 11010 11009 11008 11006 11005 11003 11001 10999 10996 10994 10993 10991 10990 10988 10988 10987 10985 10983 10981 10979 10977 10976 10975 10973 10972 10970 10967 10965 10964 10962 10961 10959 10956 10954 10951 10949 10947 10945 10942 10939 10937 10934 10932 10930 10927 10925 10922 10920 10917 10914 10912 10909 10905 10901 10897 10893
11026 11026 11026 11026 11025 11024 11023 11022 11021 11020 11019 11018 11016 11015 11014 11012 11012 11011 11009 11008 11006 11005 11004 11002 11000 10998 10996 10993 10991 10989 10987 10985 10984 10983 10982 10981 10979 10977 10976 10975 10973 10971 10970 10968 10966 10964 10962 10960 10958 10957 10955 10953 10950 10948 10946 10944 10941 10938 10936 10933 10931 10929 10926 10923 10921 10919 10917 10915 10912 10909 10906 10902 10898 10893
11024 11024 11024 11024 11024 11023 11022 11021 11019 11018 11017 11016 11015 11014 11013 11011 11010 11009 11008 11006 11005 11003 11002 11000 10999 10997 10995 10992 10989 10987 10985 10983 10981 10980 10979 10978 10976 10974 10974 10973 10971 10970 10968 10965 10964 10962 10960 10958 10957 10955 10953 10951 10949 10947 10944 10942 10940 10938 10935 10933 10930 10927 10925 10922 10919 10918 10916 10914 10912 10910 10907 10903 10899 10894
11022 11022 11022 11022 11022 11021 11021 11020 11018 11017 11015 11013 11012 11012 11011 11010 11009 11007 11006 11005 11003 11002 11000 10999 10997 10995 10993 10991 10988 10985 10982 10981 10979 10977 10976 10975 10973 10971 10970 10969 10968 10967 10965 10963 10961 10960 10958 10956 10955 10953 10951 10949 10947 10945 10943 10941 10939 10937 10934 10932 10929 10926 10923 10920 10918 10917 10915 10913 10912 10909 10906 10903 10899 10894
11020 11020 11020 11020 11020 11019 11019 11018 11017 11016 11014 11012 11010 11009 11009 11008 11007 11006 11004 11002 11001 10999 10998 10996 10995 10993 10991 10989 10986 10983 10980 10978 10976 10974 10973 10972 10971 10969 10967 10966 10965 10964 10963 10960 10959 10958 10956 10954 10953 10952 10950 10948 10946 10943 10941 10939 10937 10935 10932 10930 10928 10925 10922 10919 10917 10916 10914 10912 10910 10908 10905 10902 10898 10895
11018 11018 11018 11017 11017 11017 11017 11016 11016 11015 11013 11011 11009 11007 11006 11005 11004 11003 11002 11000 10999 10997 10996 10994 10992 10990 10988 10986 10984 10981 10978 10975 10973 10971 10971 10970 10969 10967 10965 10963 10961 10960 10960 10958 10956 10955 10954 10952 10951 10950 10948 10946 10944 10942 10939 10938 10935 10933 10931 10928 10926 10923 10920 10918 10916 10914 10912 10911 10909 10906 10903 10900 10898 10895
11016 11016 11015 11015 11014 11014 11014 11014 11013 11013 11012 11010 11008 11006 11004 11002 11001 11000 10999 10997 10996 10995 10993 10991 10989 10987 10985 10983 10981 10979 10976 10973 10970 10968 10968 10967 10965 10964 10962 10960 10958 10956 10956 10955 10953 10951 10951 10949 10949 10948 10946 10944 10942 10940 10937 10935 10933 10931 10928 10926 10923 10921 10918 10916 10914 10912 10910 10909 10906 10904 10901 10899 10897 10894
11012 11013 11013 11012 11012 11011 11011 11011 11010 11010 11009 11008 11007 11004 11002 11000 10998 10996 10995 10993 10992 10991 10990 10989 10986 10984 10982 10980 10978 10976 10974 10971 10968 10965 10964 10964 10963 10961 10960 10958 10956 10954 10952 10952 10950 10948 10948 10947 10946 10945 10943 10942 10940 10937 10935 10933 10931 10929 10926 10923 10920 10918 10916 10913 10911 10909 10908 10906 10904 10902 10899 10897 10895 10893
11009 11009 11009 11009 11009 11008 11008 11007 11007 11007 11006 11006 11004 11003 11000 10998 10996 10994 10991 10990 10988 10987 10986 10985 10983 10981 10979 10977 10975 10973 10972 10969 10966 10963 10962 10961 10960 10959 10957 10955 10953 10951 10950 10949 10948 10947 10946 10945 10945 10943 10941 10939 10937 10935 10933 10931 10929 10926 10924 10921 10918 10915 10913 10911 10909 10907 10906 10904 10902 10900 10897 10895 10894 10892
11005 11005 11005 11005 11005 11005 11005 11005 11004 11003 11002 11002 11001 11000 10998 10995 10993 10991 10989 10987 10984 10983 10982 10981 10979 10977 10976 10974 10972 10970 10969 10967 10964 10962 10960 10958 10957 10955 10954 10952 10950 10948 10947 10947 10946 10945 10944 10943 10942 10940 10938 10936 10934 10932 10930 10928 10926 10924 10922 10918 10916 10913 10911 10909 10907 10905 10903 10901 10899 10897 10895 10894 10892 10891
11002 11002 11002 11002 11001 11001 11001 11001 11001 11000 10999 10998 10997 10996 10994 10992 10990 10988 10986 10984 10982 10980 10978 10977 10976 10974 10972 10971 10970 10968 10966 10964 10962 10960 10958 10956 10954 10952 10950 10948 10946 10945 10944 10943 10942 10940 10939 10939 10938 10937 10934 10932 10931 10929 10927 10924 10923 10921 10919 10916 10914 10912 10910 10907 10905 10903 10901 10898 10897 10895 10893 10892 10890 10888
10998 10999 10999 10998 10998 10997 10997 10997 10997 10996 10996 10995 10994 10993 10990 10988 10986 10984 10983 10981 10979 10977 10975 10974 10973 10971 10970 10969 10968 10966 10964 10962 10960 10958 10956 10954 10952 10949 10946 10945 10943 10942 10940 10939 10937 10935 10934 10934 10933 10933 10931 10929 10927 10925 10924 10921 10919 10918 10916 10914 10911 10910 10908 10906 10904 10901 10899 10896 10894 10892 10891 10890 10888 10886
10995 10995 10995 10995 10994 10994 10993 10993 10993 10992 10991 10991 10990 10989 10987 10984 10982 10980 10979 10977 10976 10975 10973 10972 10971 10969 10967 10966 10966 10965 10963 10960 10958 10955 10953 10951 10948 10945 10943 10941 10940 10938 10937 10935 10933 10931 10930 10930 10929 10928 10926 10925 10923 10922 10920 10918 10916 10914 10913 10911 10909 10907 10906 10904 10901 10899 10897 10894 10891 10889 10888 10886 10885 10883
10992 10992 10991 10991 10991 10990 10990 10989 10989 10988 10988 10987 10986 10984 10982 10980 10979 10977 10975 10973 10973 10973 10971 10970 10969 10967 10966 10965 10964 10963 10960 10958 10955 10952 10950 10948 10945 10943 10940 10939 10937 10935 10934 10933 10931 10928 10927 10928 10927 10925 10923 10921 10920 10918 10916 10914 10912 10911 10909 10908 10906 10904 10903 10901 10899 10897 10895 10892 10889 10887 10885 10883 10881 10879
10988 10988 10988 10988 10987 10987 10986 10985 10984 10984 10984 10983 10982 10980 10978 10977 10976 10974 10971 10969 10969 10970 10970 10969 10967 10966 10965 10964 10962 10960 10957 10954 10951 10949 10947 10945 10943 10941 10939 10937 10935 10933 10932 10931 10928 10925 10924 10924 10923 10922 10920 10918 10916 10914 10912 10909 10908 10908 10906 10904 10902 10901 10899 10898 10896 10894 10892 10890 10888 10886 10883 10880 10878 10875
10984 10984 10984 10984 10984 10983 10982 10981 10981 10980 10979 10978 10977 10975 10974 10973 10972 10970 10967 10966 10966 10967 10967 10967 10965 10964 10963 10961 10959 10957 10954 10950 10947 10946 10945 10943 10941 10940 10938 10935 10933 10931 10929 10927 10924 10922 10920 10919 10918 10917 10917 10916 10914 10911 10908 10904 10903 10903 10901 10899 10898 10897 10896 10895 10893 10891 10889 10887 10886 10884 10882 10879 10876 10872
10980 10981 10981 10980 10980 10979 10978 10977 10977 10976 10975 10974 10972 10971 10970 10969 10968 10966 10964 10963 10963 10963 10963 10963 10962 10961 10960 10958 10955 10952 10949 10946 10945 10944 10943 10941 10940 10938 10935 10933 10930 10928 10925 10923 10920 10918 10917 10915 10913 10913 10912 10911 10910 10908 10905 10901 10899 10897 10895 10894 10893 10892 10891 10890 10888 10887 10885 10883 10882 10881 10879 10877 10874 10870
10976 10976 10976 10976 10976 10976 10975 10974 10973 10972 10971 10969 10968 10966 10965 10964 10963 10962 10960 10959 10958 10958 10958 10957 10957 10956 10955 10952 10950 10947 10944 10942 10941 10941 10940 10938 10936 10935 10934 10932 10929 10926 10923 10921 10918 10915 10913 10912 10911 10910 10909 10907 10905 10903 10901 10899 10896 10893 10891 10890 10889 10887 10886 10885 10883 10881 10879 10877 10876 10875 10874 10873 10871 10868
10972 10972 10971 10971 10971 10971 10970 10970 10969 10967 10966 10965 10964 10963 10961 10960 10959 10957 10956 10955 10953 10952 10952 10951 10950 10949 10948 10946 10944 10941 10939 10937 10937 10937 10936 10935 10933 10932 10931 10930 10927 10924 10921 10918 10916 10913 10911 10909 10908 10907 10905 10903 10900 10898 10897 10895 10893 10891 10889 10887 10885 10883 10881 10879 10878 10877 10874 10872 10870 10869 10868 10868 10867 10865
10968 10967 10967 10966 10966 10966 10965 10965 10964 10963 10962 10961 10959 10958 10957 10956 10954 10953 10951 10950 10948 10946 10945 10944 10943 10942 10940 10939 10937 10936 10935 10934 10933 10933 10932 10931 10930 10928 10927 10925 10923 10920 10917 10915 10913 10910 10908 10907 10906 10904 10902 10899 10896 10894 10892 10890 10889 10888 10887 10885 10883 10880 10877 10875 10874 10873 10871 10869 10866 10863 10862 10861 10860 10859
10964 10963 10962 10961 10961 10960 10960 10959 10958 10958 10957 10956 10955 10954 10953 10951 10950 10948 10946 10944 10942 10940 10938 10937 10936 10934 10932 10931 10931 10931 10931 10931 10930 10929 10928 10926 10924 10923 10922 10921 10919 10916 10913 10912 10909 10907 10906 10905 10903 10901 10898 10895 10892 10890 10888 10886 10885 10884 10882 10881 10879 10877 10874 10871 10870 10869 10868 10866 10864 10860 10858 10856 10853 10851
10960 10959 10958 10957 10956 10955 10955 10954 10954 10953 10952 10951 10950 10949 10948 10947 10945 10943 10941 10938 10935 10933 10931 10930 10930 10928 10926 10925 10925 10925 10925 10925 10925 10924 10922 10920 10918 10917 10917 10916 10915 10912 10910 10908 10906 10905 10905 10903 10901 10898 10895 10892 10888 10886 10885 10883 10881 10880 10878 10876 10874 10872 10870 10867 10866 10865 10864 10863 10861 10858 10855 10853 10850 10847
10956 10955 10953 10952 10952 10951 10951 10950 10950 10949 10948 10947 10946 10945 10943 10942 10940 10938 10935 10932 10930 10928 10926 10925 10924 10923 10922 10921 10920 10919 10918 10917 10917 10916 10914 10913 10911 10910 10910 10910 10910 10909 10906 10903 10902 10902 10901 10899 10897 10894 10892 10888 10885 10882 10881 10880 10878 10876 10874 10872 10871 10869 10866 10864 10862 10861 10859 10858 10857 10854 10851 10849 10847 10844
10951 10950 10949 10949 10948 10948 10948 10947 10946 10945 10944 10943 10942 10941 10939 10937 10934 10931 10928 10926 10925 10924 10922 10920 10918 10917 10917 10916 10914 10913 10912 10911 10910 10909 10907 10906 10905 10904 10903 10903 10904 10904 10902 10898 10897 10896 10896 10895 10893 10891 10888 10885 10881 10879 10877 10876 10873 10871 10870 10869 10867 10866 10864 10861 10859 10857 10855 10853 10852 10851 10848 10845 10842 10839
10947 10946 10946 10945 10945 10945 10944 10944 10943 10942 10941 10940 10939 10937 10936 10932 10928 10924 10922 10921 10921 10920 10918 10915 10913 10912 10911 10910 10910 10908 10907 10905 10904 10904 10903 10901 10900 10899 10897 10897 10897 10897 10896 10894 10892 10892 10892 10890 10888 10886 10884 10881 10877 10875 10873 10871 10868 10866 10865 10864 10863 10862 10860 10859 10857 10854 10851 10848 10845 10844 10843 10840 10836 10833
10942 10942 10942 10941 10942 10942 10941 10940 10939 10939 10938 10936 10935 10934 10932 10928 10923 10919 10916 10914 10915 10915 10912 10909 10908 10907 10906 10906 10906 10904 10902 10901 10900 10899 10898 10897 10895 10894 10892 10891 10890 10890 10889 10888 10887 10887 10886 10884 10882 10880 10877 10875 10872 10869 10868 10866 10863 10861 10860 10859 10858 10857 10856 10854 10853 10850 10848 10844 10840 10837 10835 10833 10831 10827
10938 10937 10937 10938 10938 10938 10937 10937 10936 10935 10934 10933 10932 10931 10929 10925 10919 10913 10910 10908 10909 10910 10908 10907 10906 10904 10903 10902 10902 10900 10898 10897 10897 10895 10893 10892 10890 10889 10887 10885 10884 10883 10882 10881 10880 10880 10879 10877 10875 10873 10870 10868 10866 10865 10863 10860 10858 10857 10855 10854 10853 10852 10850 10849 10847 10845 10843 10840 10835 10831 10827 10825 10823 10821
10933 10933 10933 10933 10933 10934 10934 10934 10933 10932 10931 10929 10929 10929 10929 10928 10920 10908 10903 10904 10906 10906 10906 10905 10902 10899 10897 10898 10897 10895 10894 10893 10892 10891 10888 10887 10885 10883 10882 10880 10878 10877 10876 10875 10873 10873 10873 10871 10869 10867 10865 10863 10862 10860 10858 10856 10853 10852 10850 10848 10847 10845 10844 10842 10840 10838 10836 10834 10830 10826 10822 10819 10816 10813
10928 10928 10928 10929 10929 10929 10930 10931 10930 10929 10927 10926 10927 10929 10932 10934 10925 10908 10899 10901 10903 10903 10904 10903 10898 10893 10893 10894 10893 10891 10890 10889 10888 10886 10884 10883 10881 10880 10878 10877 10874 10872 10871 10869 10867 10867 10867 10866 10864 10862 10861 10859 10858 10856 10854 10852 10849 10846 10844 10843 10840 10838 10836 10834 10832 10830 10829 10827 10823 10820 10816 10813 10810 10808
10923 10922 10922 10923 10924 10926 10928 10928 10926 10925 10925 10928 10930 10929 10932 10937 10933 10916 10903 10901 10901 10900 10900 10899 10895 10891 10890 10891 10890 10888 10886 10885 10883 10881 10879 10878 10877 10876 10875 10873 10870 10867 10866 10865 10863 10861 10861 10860 10859 10857 10856 10854 10853 10851 10849 10847 10844 10841 10838 10836 10834 10831 10828 10825 10823 10821 10819 10818 10816 10813 10810 10807 10805 10802
10916 10915 10917 10919 10921 10924 10925 10923 10924 10926 10928 10931 10931 10925 10923 10930 10932 10922 10910 10903 10899 10898 10896 10894 10891 10888 10887 10886 10886 10884 10882 10880 10878 10876 10874 10873 10872 10871 10870 10868 10865 10863 10862 10860 10858 10856 10855 10855 10854 10852 10850 10849 10847 10845 10842 10840 10838 10835 10832 10829 10827 10824 10820 10817 10815 10812 10809 10808 10807 10805 10803 10801 10798 10795
10907 10905 10909 10914 10918 10922 10923 10923 10926 10928 10928 10929 10929 10922 10917 10918 10919 10916 10910 10902 10896 10893 10890 10887 10885 10884 10882 10880 10879 10878 10876 10874 10872 10870 10869 10867 10865 10864 10863 10861 10859 10857 10857 10855 10854 10852 10850 10849 10848 10846 10845 10843 10841 10839 10837 10834 10832 10830 10827 10823 10820 10817 10813 10809 10806 10803 10801 10799 10797 10795 10794 10792 10789 10787
10899 10897 10901 10907 10913 10920 10923 10923 10924 10927 10928 10929 10929 10924 10917 10914 10911 10907 10901 10896 10890 10887 10884 10880 10878 10878 10876 10874 10872 10871 10870 10868 10866 10864 10862 10860 10858 10857 10856 10855 10853 10852 10851 10850 10848 10847 10845 10843 10842 10840 10838 10837 10835 10833 10830 10828 10826 10823 10821 10818 10814 10811 10807 10803 10799 10795 10793 10790 10788 10785 10783 10781 10778 10775
10893 10892 10896 10902 10909 10916 10920 10917 10916 10921 10925 10925 10923 10918 10912 10909 10906 10899 10891 10886 10882 10879 10876 10873 10872 10871 10870 10867 10865 10863 10862 10861 10859 10857 10856 10854 10852 10850 10849 10848 10847 10846 10845 10843 10842 10840 10839 10837 10836 10834 10832 10830 10828 10826 10824 10821 10819 10816 10814 10811 10808 10805 10803 10799 10794 10789 10785 10782 10779 10777 10774 10770 10768 10765
10886 10887 10890 10896 10902 10909 10914 10913 10910 10911 10911 10909 10906 10904 10899 10897 10894 10889 10880 10874 10871 10869 10868 10867 10866 10865 10863 10861 10858 10855 10854 10853 10852 10851 10849 10847 10846 10844 10843 10842 10841 10840 10839 10837 10835 10833 10832 10831 10829 10827 10825 10823 10822 10820 10817 10814 10812 10809 10806 10803 10800 10798 10796 10793 10789 10784 10779 10774 10771 10768 10764 10761 10758 10755
10878 10879 10882 10887 10890 10895 10900 10902 10900 10898 10895 10892 10890 10888 10886 10883 10881 10877 10871 10866 10863 10862 10861 10861 10861 10859 10857 10855 10853 10850 10848 10847 10846 10845 10844 10842 10840 10839 10837 10836 10835 10834 10833 10831 10829 10827 10825 10823 10822 10820 10818 10816 10814 10812 10810 10807 10803 10800 10797 10795 10792 10789 10788 10785 10781 10777 10772 10768 10764 10759 10755 10752 10749 10746
10874 10869 10871 10876 10879 10881 10884 10885 10884 10883 10881 10879 10877 10876 10874 10872 10869 10866 10864 10862 10860 10858 10856 10856 10856 10855 10853 10850 10848 10846 10844 10842 10840 10839 10837 10836 10834 10833 10831 10829 10828 10827 10826 10824 10821 10819 10817 10815 10813 10812 10809 10807 10805 10803 10801 10798 10795 10791 10788 10785 10782 10780 10778 10775 10772 10768 10764 10760 10755 10751 10745 10741 10738 10735